CZ-11 R/B (47239 NORAD) Tracking and Keplerian Element Data

This shows tracking and keplerian element data for the satellite.

Feedback or suggestion? Click here.




ElementValue
Catalog47239
NameCZ-11 R/B
Epoch Orbit171
Epoch Day357.19668598
Epoch Year2020
RAAN289.9821
Inclination28.8913
Eccentricity0.0114229
Argument of Perigee60.1285
Mean Anonmoly79.5436
Mean Motion16.23391963
Decay Rate0.09791131
L11 47239U 20094D 20357.19668598 .09791131 -64990-5 38438-3 0 9993
L22 47239 28.8913 289.9821 0114229 60.1285 79.5436 16.23391963 1714

Live tracking and technical data element details for CZ-11 R/B (NORAD 47239). CZ-11 R/B can be tracked NOW for your location showing map with azimuth and elevation plus other details from your city location.

Track the satellite on the map from your city or location and see movement details for azimuth, elevation, latitude, longitude, range, height, and movement on the map or in text.







IsCatalogInMostPopularTable: catalog: 47239, numindb: 12
Update: records affected: 1



GetName: 47239 CZ-11 R/B

Hit Count: updated at: Sat, 23 Jan 2021 18:06:05 GMT